Tracking 19146 objects as of 24-Apr-2018
HD Live streaming from Space Station
objects crossing your sky now

FENGYUN 1C DEB

Track FENGYUN 1C DEB now!
10-day predictions


NORAD ID: 32163
Int'l Code: 1999-025CTH
Perigee: 752.2 km
Apogee: 841.9 km
Inclination: 99.5 °
Period: 100.7 minutes
Semi major axis: 7168 km
RCS: 0.0079 m2 (small)
Launch date: May 10, 1999
Source: People's Republic of China (PRC)
Launch site: Taiyaun Space Center, China (TSC)

Note: This is SATELLITE DEBRIS
aabbcc
Your satellite tracking list
Your tracking list is empty




NASA's NSSDC Master Catalog

Two Line Element Set (TLE):
1 32163U 99025CTH 18094.35864413  .00000350  00000-0  15083-3 0  9994
2 32163  99.5321 142.8492 0062544 182.9244 177.1579 14.30550140556610
Source of the keplerian elements: AFSPC